Regional Weather Roundup
Issued by NWS

Home | Current Version | Previous Version | Text Only | Print | Product List | Glossary Off
Versions: 1 2 3 4 5 6 7 8 9 10 11 12 13 14 15 16 17 18 19 20 21 22 23 24 25 26 27 28 29 30 31 32 33 34 35 36 37 38 39 40 41 42 43 44 45 46 47 48 49 50

000
ASUS43 KFSD 242310
RWRSD

WEATHER ROUNDUP FOR SOUTH DAKOTA
NATIONAL WEATHER SERVICE SIOUX FALLS SD
600 PM CDT MON JUL 24 2017

NOTE: "FAIR" INDICATES FEW OR NO CLOUDS BELOW 12,000 FEET WITH NO
SIGNIFICANT WEATHER AND/OR OBSTRUCTIONS TO VISIBILITY.


SDZ001>005-009-010-012>017-250000-
NORTHWEST AND NORTH CENTRAL SOUTH DAKOTA

CITY           SKY/WX    TMP DP  RH WIND       PRES   REMARKS
BUFFALO          N/A     97  50  20 S8        29.75S
FAITH            N/A     96  53  23 NE9       29.80F
MOBRIDGE       SUNNY     85  69  58 SE22G28   29.78F
$$

SDZ012>016-024>037-041>051-057-063-072>074-250000-
SOUTHWEST AND SOUTH CENTRAL SOUTH DAKOTA

CITY           SKY/WX    TMP DP  RH WIND       PRES   REMARKS
RAPID CTY ARPT SUNNY     97  47  18 NE10G16   29.83R
PIERRE         MOSUNNY   95  65  37 SE29G37   29.69F HX  97
CUSTER         MOSUNNY   90  45  21 E13G20    30.03R
ELLSWORTH AFB  SUNNY     97  47  18 N9        29.83S
PHILIP         SUNNY    104  54  19 NE6       29.71S HX 102
PINE RIDGE     SUNNY    102  34   9 W9        29.81F HX  96
SPEARFISH      LGT RAIN  93  52  24 NE10      29.88F
WINNER         FAIR     102  47  15 S18       29.73F HX  98
$$

SDZ004>011-016>023-039-040-250000-
NORTHEAST SOUTH DAKOTA

CITY           SKY/WX    TMP DP  RH WIND       PRES   REMARKS
ABERDEEN       CLOUDY    73  70  90 E10       29.87F
WATERTOWN      FAIR      78  65  63 SE21G28   29.89F
BROOKINGS      FAIR      80  64  58 SE14      29.95F
SISSETON         N/A     72  67  84 E15       29.87F
$$

SDZ017-020-022-023-036>040-048>070-250000-
SOUTHEAST SOUTH DAKOTA

CITY           SKY/WX    TMP DP  RH WIND       PRES   REMARKS
SIOUX FALLS    FAIR      83  65  54 SE21      29.92F
HURON          PTSUNNY   83  67  58 SE20G29   29.82F
CHAMBERLAIN    MOSUNNY   93  69  45 SE22G28   29.76F HX  97
MITCHELL       MOSUNNY   88  67  49 SE17G25   29.86S
YANKTON        FAIR      87  67  51 SE20      29.90R
$$

ABBREVIATIONS USED IN REMARKS
   TC - TEMPERATURE IN CELSIUS
  WCI - WIND CHILL INDEX
   HX - HEAT INDEX
  VSB - VISIBILITY




USA.gov is the U.S. government's official web portal to all federal, state and local government web resources and services.